Location: St. Louis
(38.6270°N, 90.1994°W)
Time: 11:04:31
(UTC-06:00)

Altair - Pass Details

Date: 03 December 2021
Orbit: 1501 x 1683 km, 47.2° (Epoch: 25 January)

Event Time Altitude Azimuth Distance (km) Brightness Sun altitude
Rises 13:30:40 0° 197° (SSW) 4,831 11.5 24.8°
Reaches altitude 10° 13:34:18 10° 187° (S) 3,821 11.1 24.5°
Maximum altitude 13:42:21 31° 130° (SE) 2,496 9.0 23.8°
Drops below altitude 10° 13:50:11 10° 73° (ENE) 3,714 9.2 23.0°
Sets 13:53:37 0° 64° (ENE) 4,678 9.6 22.7°
